TIME,DELAY(SENSOR),PRES,OXYGEN,RAWTEMP,T(OPTODE),TCPHASE,FLUOR,BETA(BETA700),BETA(BETA412),BETA(BETA440),CDOM,C(CSC),ED(ED411.90),ED(ED443.80),ED(ED489.40),ED(ED554.70),LU(LU412.20),LU(LU443.80),LU(LU489.40),LU(LU555.00),COMP,TILTX,TILTY,CHECK
1341699018,5805,873.8300170898438000,176.3379974365234400,462.9487915039062500,8.6746053695678710,38.8158302307128900,51,103,99,79,82,14587,2146952987,2147514624,2147289581,2147512000,2147089426,2146923776,2147708379,2147121728,2393,-2,8,56758
1341702614,5808,987.7600097656250000,221.1864013671875000,523.1312866210938000,6.8100309371948240,37.0638809204101560,52,102,100,79,81,14584,2146957376,2147518793,2147299894,2147521984,2147093430,2146919990,2147713828,2147119753,979,-1,8,65066
1341706214,5805,1019.4500122070312000,232.1672058105468800,534.4108886718750000,6.4578127861022950,36.6681213378906250,53,101,100,78,82,14580,2146953179,2147516635,2147296274,2147526125,2147088128,2146917174,2147718244,2147118710,1046,-1,8,41678
1341709814,5809,1024.2299804687500000,236.4308929443359400,535.7866210937500000,6.4147911071777340,36.4692115783691400,53,100,100,79,82,14575,2146954660,2147514468,2147298998,2147525851,2147091337,2146914587,2147721078,2147119067,75,-1,8,47016
1341713414,5801,1031.4100341796875000,236.7216033935547000,536.5261840820312000,6.3916549682617190,36.4677886962890600,52,101,99,80,82,14576,2146951652,2147512438,2147298240,2147528201,2147095158,2146921810,2147719460,2147116406,3491,-1,8,4279
1341717014,5805,1033.8399658203125000,236.9720001220703000,536.7556762695312000,6.3844738006591800,36.4584388732910160,52,103,100,80,82,14573,2146955300,2147518793,2147296777,2147530166,2147095396,2146918244,2147725403,2147118445,348,-1,8,16519
1341720614,5806,1038.5999755859375000,236.7402954101562500,536.5952148437500000,6.3894982337951660,36.4679908752441400,52,107,100,79,82,14572,2146956187,2147519917,2147299437,2147527789,2147090651,2146918445,2147723565,2147118674,811,-1,8,7786
1341724214,5804,1031.5200195312500000,235.5121002197265600,535.2509155273438000,6.4315471649169920,36.5077209472656250,53,103,103,80,82,14569,2146956690,2147518692,2147295853,2147528402,2147091730,2146916571,2147726016,2147118729,3529,-1,8,23090
1341727814,5806,1036.5699462890625000,235.1009979248047000,534.8209228515625000,6.4449939727783200,36.5211906433105500,52,103,100,78,81,14568,2146958518,2147516416,2147297078,2147527424,2147093723,2146915346,2147724278,2147121645,302,-1,8,7650
1341731414,5805,1036.7500000000000000,234.7680053710937500,535.2711791992188000,6.4309120178222660,36.5471000671386700,53,103,101,80,82,14569,2146954898,2147517028,2147297298,2147526683,2147091794,2146918774,2147723675,2147117997,3407,-1,8,4462
1341735014,5807,1013.8499755859375000,229.7884063720703000,529.1990966796875000,6.6206741333007810,36.7018394470214840,53,104,101,78,82,14572,2146955318,2147517805,2147295853,2147527387,2147091145,2146918637,2147719040,2147116626,3297,-1,8,34249
1341738614,5809,1009.3699951171875000,227.5771026611328000,527.6923217773438000,6.6677231788635250,36.7940483093261700,52,103,99,79,83,14570,2146954002,2147515776,2147298166,2147528420,2147093906,2146925549,2147721024,2147118080,57,-1,7,46796
1341742214,5808,1008.2000122070312000,227.4535980224609400,527.8654785156250000,6.6623148918151855,36.8040199279785160,51,102,99,79,82,14569,2146953142,2147517019,2147294025,2147526665,2147090459,2146919405,2147724022,2147118838,295,-1,8,3499
1341745814,5803,1009.7600097656250000,227.5458984375000000,529.4025878906250000,6.6143212318420410,36.8267097473144500,53,101,99,79,82,14568,2146952228,2147517284,2147297682,2147529024,2147093065,2146917549,2147723510,2147118537,3572,-1,8,16477
1341749414,5808,1007.5599975585938000,228.6175994873047000,529.0338134765625000,6.6258368492126465,36.7621002197265600,53,102,101,80,80,14557,2146957568,2147519067,2147296100,2147525961,2147090441,2146914816,2147723126,2147117421,1349,-1,8,40842
1341753014,5806,1008.1400146484375000,227.0802001953125000,529.3936767578125000,6.6145968437194820,36.8512306213378900,53,101,101,79,82,14553,2146956443,2147516196,2147295542,2147525988,2147089106,2146922139,2147724790,2147117403,3461,-1,8,45895
1341756614,5805,1007.3900146484375000,229.5213928222656200,529.9119262695312000,6.5984120368957520,36.7294883728027340,51,102,100,80,83,14554,2146950592,2147518473,2147293961,2147527296,2147090651,2146920045,2147720521,2147117741,357,-1,8,52517
1341760214,5806,1006.9500122070312000,228.3787994384765600,530.2636718750000000,6.5874228477478030,36.7970886230468750,52,103,100,79,81,14552,2146954185,2147516187,2147298084,2147528137,2147093293,2146915373,2147725897,2147115940,289,-1,8,46748
1341763814,5808,1008.2999877929688000,229.5151062011718800,530.3098754882812000,6.5859789848327640,36.7364807128906250,52,104,100,79,81,14554,2146952612,2147516763,2147295122,2147527460,2147089216,2146923108,2147728000,2147116973,259,-1,8,1697
1341767414,5807,1007.8900146484375000,228.0921020507812500,530.7191162109375000,6.5731978416442870,36.8202095031738300,52,106,99,79,82,14549,2146953865,2147514468,2147297883,2147529298,2147095872,2146922230,2147726116,2147117238,527,-1,8,2155
1341771014,5804,1008.7500000000000000,230.0393981933593800,531.0858154296875000,6.5617408752441410,36.7220802307128900,52,105,100,79,81,14554,2146953545,2147514569,2147297572,2147526710,2147091666,2146920923,2147725257,2147120009,3493,-2,8,30708
1341774614,5804,1009.9199829101562000,230.9075012207031200,531.0947265625000000,6.5614638328552250,36.6761207580566400,53,103,100,79,81,14554,2146953014,2147515419,2147297161,2147528557,2147094153,2146921673,2147724233,2147116699,3460,-1,8,55901
1341778214,5806,1017.9500122070312000,227.7355957031250000,529.2224121093750000,6.6199469566345215,36.8132896423339840,52,100,100,79,82,14554,2146956498,2147513856,2147298313,2147524937,2147092470,2146916937,2147723410,2147118866,664,-1,8,21248
1341781814,5809,1019.4400024414062000,227.7351989746093800,527.9829711914062000,6.6586480140686035,36.7909584045410160,52,101,101,79,82,14553,2146955849,2147515126,2147296832,2147522834,2147092909,2146920091,2147722596,2147119552,22,-1,8,45630
1341785414,5808,1014.3400268554688000,226.1349029541015600,528.5266113281250000,6.6416759490966800,36.8870315551757800,52,105,101,81,81,14549,2146957421,2147516096,2147297097,2147523712,2147092132,2146923428,2147718848,2147120804,144,-1,8,54911
1341789014,5805,1018.7000122070312000,228.1347961425781200,528.7150268554688000,6.6357941627502440,36.7819404602050800,51,104,100,79,82,14549,2146956507,2147519506,2147298185,2147530843,2147095085,2146919341,2147719634,2147119661,3168,-1,8,60719
1341792614,5803,1015.5100097656250000,228.5243072509765600,528.6563720703125000,6.6376228332519530,36.7605400085449200,52,104,101,80,83,14546,2146957284,2147515885,2147300269,2147526646,2147090285,2146921051,2147720201,2147116096,3412,-1,8,576
1341796214,5803,1018.0599975585938000,228.5269927978515600,528.7800292968750000,6.6337637901306150,36.7625083923339840,51,102,99,79,82,14545,2146955209,2147518701,2147293101,2147524507,2147091099,2146914642,2147721371,2147118482,3576,-1,8,36211
1341799814,5807,1021.8800048828125000,228.8018035888672000,529.4498291015625000,6.6128439903259280,36.7592506408691400,52,102,101,79,81,14547,2146952201,2147515812,2147297408,2147523090,2147092608,2146918345,2147725321,2147121051,3163,-1,8,63065
1341803414,5805,1020.8599853515625000,229.0796966552734400,529.6633300781250000,6.6061758995056150,36.7481498718261700,52,102,102,78,82,14550,2146957641,2147516141,2147300982,2147526683,2147092754,2146920100,2147721280,2147122276,3390,-1,8,5992
1341807014,5808,1013.2700195312500000,228.9391937255859400,530.2880859375000000,6.5866599082946780,36.7665901184082000,53,103,99,79,81,14548,2146957421,2147519140,2147298596,2147525074,2147093046,2146918098,2147724836,2147118774,100,-1,8,48780
1341810614,5805,1012.9199829101562000,228.8412017822265600,531.4464111328125000,6.5504760742187500,36.7927818298339840,52,105,99,78,81,14543,2146954953,2147517376,2147298852,2147527488,2147094427,2146918838,2147723995,2147117494,2906,-1,8,51146
1341814214,5803,1018.5599975585938000,230.4752960205078000,531.8167724609375000,6.5389018058776855,36.7116508483886700,52,102,104,79,81,14547,2146957641,2147519076,2147299684,2147527835,2147089737,2146914953,2147727286,2147121974,3512,-1,8,17527
1341817814,5809,1018.2199707031250000,228.0065002441406200,530.7717895507812000,6.5715517997741700,36.8257789611816400,52,102,100,79,82,14546,2146952640,2147513947,2147296393,2147527012,2147088384,2146920018,2147724041,2147121042,69,-1,8,47060
1341821414,5805,1014.9400024414062000,230.1128997802734400,531.7404174804688000,6.5412878990173340,36.7300910949707000,53,102,101,78,81,14546,2146955273,2147515876,2147297216,2147526299,2147092416,2146917211,2147721691,2147118390,3534,-2,8,59311
1341825014,5807,1025.9100341796875000,229.2420043945312500,529.4619140625000000,6.6124668121337890,36.7363090515136700,51,104,100,78,82,14531,2146957257,2147516406,2147297590,2147523446,2147092781,2146917312,2147722038,2147121572,674,-1,8,36267
1341828614,5804,1024.3900146484375000,227.5668945312500000,528.4526977539062000,6.6439819335937500,36.8088493347168000,52,101,100,80,83,14536,2146954304,2147513554,2147298614,2147525284,2147093476,2146919872,2147720850,2147120694,3261,-2,8,39978
1341832214,5808,1024.8000488281250000,226.1141052246093800,528.5408935546875000,6.6412301063537600,36.8890190124511700,53,102,101,80,81,14531,2146951926,2147516699,2147297819,2147523291,2147090157,2146915702,2147722715,2147119844,2249,-2,8,25807
1341835814,5806,1024.5200195312500000,225.1920928955078000,528.6331176757812000,6.6383509635925290,36.9411582946777340,52,108,99,79,80,14535,2146957769,2147516626,2147301074,2147527360,2147091684,2146920630,2147725970,2147120859,176,-1,8,26990
1341839414,5806,1022.3499755859375000,225.7449035644531200,528.7373046875000000,6.6350960731506350,36.9120903015136700,52,102,101,80,81,14533,2146957659,2147515072,2147298953,2147523520,2147094052,2146918701,2147723309,2147120914,253,-1,8,63724
1341841855,5804,1016.9199829101562000,226.9515991210937500,529.6959228515625000,6.6051621437072750,36.8640403747558600,52,104,99,79,81,14548,2146957202,2147515154,2147297371,2147523355,2147090230,2146921664,2147724672,2147120146,3473,-2,8,3237
